Location: Kellogg
(38.0159°N, 90.0546°W)
Time: 07:34:27
(UTC+00:00)

Explorer 7 - All Passes

Search period start: 19 September 2024 00:00
Search period end: 29 September 2024 00:00
Orbit: 462 x 609 km, 50.3° (Epoch: 19 September)

Date Brightness Start Highest point End Pass type
(mag) Time Alt. Az. Time Alt. Az. Time Alt. Az.
19 Sep - 05:53:02 10° SW 05:56:57 61° SE 06:00:42 10° ENE night (unlit)
19 Sep - 07:33:27 10° W 07:36:38 24° NNW 07:39:43 10° NNE night (unlit)
19 Sep - 09:15:31 10° NNW 09:17:06 12° N 09:18:41 10° NNE visible
19 Sep - 10:55:13 10° NNW 10:57:44 17° NNE 11:00:15 10° ENE visible
19 Sep - 12:34:03 10° NW 12:37:40 74° NE 12:41:19 10° ESE daylight
19 Sep - 14:15:04 10° WSW 14:16:41 13° SW 14:18:19 10° SSW daylight
20 Sep - 05:42:39 10° SW 05:46:38 80° SE 05:50:26 10° NE night (unlit)
20 Sep - 07:23:24 10° WNW 07:26:25 21° NNW 07:29:21 10° NNE night (unlit)
20 Sep - 09:05:24 10° NNW 09:06:58 12° N 09:08:31 10° NNE visible
20 Sep - 10:44:49 10° NNW 10:47:33 20° NNE 10:50:15 10° ENE visible
20 Sep - 12:23:45 10° NW 12:27:22 85° SW 12:31:00 10° SE daylight
21 Sep - 03:55:12 10° SSE 03:57:13 13° SE 03:59:12 10° E night (unlit)
21 Sep - 05:32:18 10° SW 05:36:18 80° NW 05:40:07 10° NE night (unlit)
21 Sep - 07:13:23 10° WNW 07:16:12 19° NNW 07:18:57 10° NNE night (unlit)
21 Sep - 08:55:12 10° NNW 08:56:47 12° N 08:58:23 10° NNE visible
21 Sep - 10:34:23 10° NNW 10:37:19 22° NNE 10:40:13 10° ENE visible
21 Sep - 12:13:26 10° WNW 12:17:01 65° SW 12:20:36 10° SE daylight
22 Sep - 03:44:00 10° S 03:46:46 18° SE 03:49:27 10° E night (unlit)
22 Sep - 05:21:58 10° WSW 05:25:56 63° NW 05:29:45 10° NE night (unlit)
22 Sep - 07:03:19 10° WNW 07:05:57 17° NNW 07:08:31 10° NNE night (unlit)
22 Sep - 08:44:54 10° NNW 08:46:36 13° N 08:48:17 10° NNE visible
22 Sep - 10:23:56 10° NW 10:27:03 26° NNE 10:30:08 10° E visible
22 Sep - 12:03:07 10° WNW 12:06:38 48° SW 12:10:07 10° SSE daylight
23 Sep - 03:33:03 10° S 03:36:18 23° SE 03:39:27 10° E night (unlit)
23 Sep - 05:11:39 10° WSW 05:15:35 51° NNW 05:19:20 10° NE night (unlit)
23 Sep - 06:53:15 10° NW 06:55:42 16° NNW 06:58:05 10° NNE night (unlit)
23 Sep - 08:34:31 10° NNW 08:36:23 13° N 08:38:11 10° NE visible
23 Sep - 10:13:27 10° NW 10:16:45 30° NNE 10:19:59 10° E visible
23 Sep - 11:52:50 10° WNW 11:56:12 36° SW 11:59:32 10° SSE daylight
24 Sep - 03:22:13 10° SSW 03:25:49 29° SE 03:29:17 10° ENE night (unlit)
24 Sep - 05:01:21 10° WSW 05:05:12 41° NNW 05:08:53 10° NE night (unlit)
24 Sep - 06:43:09 10° NW 06:45:25 15° NNW 06:47:39 10° NNE night (unlit)
24 Sep - 08:24:05 10° NNW 08:26:07 14° N 08:28:06 10° NE visible
24 Sep - 10:02:57 10° NW 10:06:23 36° NNE 10:09:46 10° E visible
24 Sep - 11:42:35 10° WNW 11:45:43 28° SW 11:48:50 10° SSE daylight
25 Sep - 03:11:28 10° SSW 03:15:19 37° SE 03:19:01 10° ENE night (unlit)
25 Sep - 04:51:05 10° W 04:54:48 35° NNW 04:58:23 10° NE night (unlit)
25 Sep - 06:33:00 10° NW 06:35:07 14° N 06:37:12 10° NNE night (unlit)
25 Sep - 08:13:35 10° NNW 08:15:49 15° NNE 08:18:01 10° NE visible
25 Sep - 09:52:26 10° NW 09:56:00 45° NNE 09:59:29 10° ESE visible
25 Sep - 11:32:24 10° W 11:35:12 21° SW 11:38:00 10° S daylight
26 Sep - 03:00:47 10° SSW 03:04:48 48° SE 03:08:40 10° ENE night (unlit)
26 Sep - 04:40:48 10° W 04:44:24 30° NNW 04:47:52 10° NE night (unlit)
26 Sep - 06:22:48 10° NW 06:24:48 14° N 06:26:47 10° NNE night (unlit)
26 Sep - 08:03:02 10° NNW 08:05:29 16° NNE 08:07:53 10° NE night (unlit)
26 Sep - 09:41:56 10° NW 09:45:33 57° NNE 09:49:07 10° ESE visible
26 Sep - 11:22:19 10° W 11:24:39 16° SW 11:26:58 10° S visible
27 Sep - 02:50:08 10° SW 02:54:17 63° SE 02:58:15 10° ENE night (unlit)
27 Sep - 04:30:32 10° W 04:33:59 26° NNW 04:37:18 10° NE night (unlit)
27 Sep - 06:12:32 10° NW 06:14:28 13° N 06:16:22 10° NNE night (unlit)
27 Sep - 07:52:27 10° NNW 07:55:07 18° NNE 07:57:44 10° ENE night (unlit)
27 Sep - 09:31:23 10° NW 09:35:05 74° NE 09:38:42 10° ESE visible
27 Sep - 11:12:28 10° WSW 11:14:03 12° SW 11:15:37 10° SSW visible
28 Sep - 01:03:33 10° SE 01:04:45 11° SE 01:05:55 10° ESE visible
28 Sep - 02:39:32 10° SW 02:43:44 80° SE 02:47:46 10° NE visible
28 Sep - 04:20:15 10° WNW 04:23:33 23° NNW 04:26:43 10° NNE night (unlit)
28 Sep - 06:02:12 10° NNW 06:04:07 13° N 06:05:59 10° NNE night (unlit)
28 Sep - 07:41:50 10° NNW 07:44:43 20° NNE 07:47:32 10° ENE night (unlit)
28 Sep - 09:20:51 10° NW 09:24:34 86° SW 09:28:11 10° SE visible
